SEEKER (44533 NORAD) Tracking and Keplerian Element Data

This shows tracking and keplerian element data for the satellite.

Feedback or suggestion? Click here.




ElementValue
Catalog44533
NameSEEKER
Epoch Orbit364
Epoch Day283.06947783
Epoch Year2019
RAAN161.0785
Inclination51.6407
Eccentricity0.0012595
Argument of Perigee120.1867
Mean Anonmoly240.0382
Mean Motion15.30165913
Decay Rate1.153E-05
L11 44533U 19022K 19283.06947783 .00001153 00000-0 51212-4 0 9995
L22 44533 51.6407 161.0785 0012595 120.1867 240.0382 15.30165913 3645

Live tracking and technical data element details for SEEKER (NORAD 44533). SEEKER can be tracked NOW for your location showing map with azimuth and elevation plus other details from your city location.

Track the satellite on the map from your city or location and see movement details for azimuth, elevation, latitude, longitude, range, height, and movement on the map or in text.







IsCatalogInMostPopularTable: catalog: 44533, numindb: 12
Update: records affected: 1



GetName: 44533 SEEKER

Hit Count: updated at: Thu, 14 Nov 2019 06:30:17 GMT